Lapse_Rate
3.9 3.3 3.2 3.8 3.6 3.8 4.0 4.5 4.1 4.7 5.2 5.2 5.1 5.2 5.4 5.4 4.9 5.2 5.3 5.0 5.2 4.9 5.3 5.7 5.6 5.8 6.0 5.9 5.6 5.4 5.2 5.1 5.0 5.1 5.3 5.4 5.5 5.6 5.6 5.4 5.3 5.1 5.1
3.8 3.6 3.5 3.3 3.4 3.2 3.3 3.5 4.2 4.0 4.6 5.1 5.1 4.9 5.1 5.1 5.1 4.3 4.9 5.1 5.3 5.2 5.6 5.7 5.9 6.1 6.0 5.7 5.5 5.4 5.2 5.1 5.1 5.2 5.3 5.5 5.6 5.7 5.8 5.7 5.4 5.2 5.1
3.6 3.4 3.3 3.0 2.7 2.8 2.7 3.0 3.2 3.8 4.1 4.4 4.6 4.9 4.8 4.5 4.6 4.3 4.3 4.5 4.9 4.9 5.1 5.5 5.7 5.7 5.9 5.8 5.7 5.4 5.2 5.2 5.3 5.3 5.4 5.6 5.8 5.8 5.8 5.8 5.5 5.3 5.2
4.6 4.2 3.6 2.9 2.5 2.7 2.7 2.4 2.8 3.4 3.4 4.0 4.1 4.4 4.7 4.6 4.7 4.8 4.7 4.5 4.9 4.9 5.6 5.8 5.5 5.1 5.6 5.7 5.7 5.4 5.3 5.2 5.3 5.4 5.6 5.8 5.9 5.8 6.0 5.8 5.5 5.5 5.5
6.1 5.4 5.1 4.6 4.1 3.4 2.7 2.5 2.6 3.0 3.5 3.8 3.8 4.0 4.0 4.5 4.5 4.5 4.6 4.8 4.6 5.0 5.2 5.3 5.4 5.2 5.6 5.8 5.7 5.5 5.4 5.3 5.4 5.6 5.6 5.7 5.9 6.1 6.2 5.8 5.7 5.6 5.6
6.6 6.8 7.0 7.1 6.9 6.4 5.3 3.9 3.5 2.8 3.4 3.3 3.7 4.0 4.2 4.4 4.5 4.4 4.5 4.5 4.6 5.1 5.1 5.4 5.3 4.7 5.0 6.0 5.9 5.6 5.4 5.4 5.4 5.6 5.7 5.8 6.1 6.5 6.3 6.0 5.7 5.7 5.6
6.6 6.9 7.1 7.1 6.9 7.0 6.6 5.8 5.1 4.5 4.0 3.6 3.6 3.7 4.1 4.1 4.1 4.3 4.5 4.5 4.8 4.6 4.6 5.2 5.2 4.7 5.2 5.8 5.8 5.8 5.8 5.7 5.8 5.8 5.8 5.9 6.1 6.6 6.2 6.1 6.0 5.7 5.4
7.0 6.9 7.0 7.2 7.2 7.0 6.9 7.0 6.6 5.8 5.3 5.5 4.2 3.5 3.6 3.8 4.1 4.5 4.7 4.7 4.8 4.7 5.0 5.2 5.4 4.9 5.2 5.3 5.8 6.0 6.2 6.3 6.1 6.2 6.3 6.4 6.6 6.2 6.1 6.3 6.0 5.7 5.7
7.4 7.4 7.4 7.3 7.5 7.7 7.6 7.2 7.0 7.2 7.2 6.8 5.4 4.3 3.7 3.8 4.2 4.5 4.8 5.3 5.1 4.8 5.5 5.0 5.0 5.1 5.3 5.5 5.8 6.2 6.0 6.4 6.4 6.3 6.7 6.2 6.6 6.2 6.3 6.5 6.1 5.9 5.9
6.9 7.1 7.3 7.0 6.7 6.9 7.0 6.8 6.8 6.9 7.1 6.8 6.3 5.3 4.9 4.3 4.5 4.6 5.4 4.7 4.8 5.2 5.6 5.3 5.1 5.2 5.2 5.3 5.9 6.3 6.0 5.7 6.0 6.8 6.6 6.1 6.3 6.3 6.1 6.2 6.0 6.0 6.0
7.3 7.3 6.7 6.2 6.4 6.1 6.4 5.7 5.8 5.5 6.0 6.5 7.0 6.6 5.5 5.4 5.2 5.0 5.3 5.4 4.9 5.3 5.1 5.3 4.9 5.1 5.3 5.4 5.9 6.1 5.7 5.7 5.8 6.2 6.5 6.3 6.3 6.3 6.0 5.8 5.9 5.8 5.9
6.5 6.1 5.9 6.0 6.1 5.9 5.3 5.5 5.3 5.8 5.9 6.7 6.4 6.4 5.5 4.8 4.9 4.9 5.2 5.3 5.1 4.8 4.8 4.6 4.4 5.0 5.5 5.0 5.0 5.7 5.7 6.2 6.3 6.6 6.1 6.3 6.1 6.2 6.3 5.8 5.9 5.4 5.3
5.8 5.4 5.3 5.2 5.2 5.2 5.5 5.3 5.4 6.1 6.0 6.1 5.8 5.3 5.2 5.4 5.1 5.1 5.2 5.0 5.1 5.0 4.3 4.7 5.3 5.5 5.2 4.9 5.2 5.6 5.7 5.8 5.7 5.9 5.7 6.1 6.2 6.5 6.3 5.8 5.5 5.7 5.5
5.5 5.1 4.9 4.9 5.2 5.3 5.8 5.5 5.4 6.0 5.2 5.3 5.3 5.4 5.6 5.5 5.1 5.2 5.2 5.0 5.1 5.0 4.5 4.5 4.5 4.7 5.2 5.1 5.2 5.3 5.7 6.0 5.7 5.3 5.1 5.5 5.1 5.3 5.9 5.9 5.5 5.4 5.3
5.1 5.4 5.2 5.5 5.2 5.4 5.2 5.4 5.6 5.5 5.5 5.6 4.8 5.0 4.8 5.4 5.4 5.4 5.1 5.0 4.8 4.7 4.3 4.5 4.7 4.8 5.0 5.2 5.3 5.6 5.4 5.4 5.4 5.1 5.3 5.1 5.2 5.5 5.7 5.8 5.7 5.4 5.3
5.4 5.7 5.8 5.4 5.2 5.3 5.5 5.4 5.7 5.9 5.8 5.5 5.2 5.1 4.7 4.8 5.0 5.0 4.7 5.0 4.7 5.0 5.0 5.0 5.1 5.4 5.2 5.2 5.3 5.3 5.1 5.2 5.1 5.3 5.3 5.3 5.3 5.4 5.6 5.6 5.5 5.3 5.4
5.4 5.4 5.7 5.4 5.3 5.4 5.3 5.1 5.1 5.5 5.5 5.6 5.3 5.4 5.5 5.2 5.2 5.2 5.3 5.2 5.0 5.2 5.3 5.4 5.3 5.0 5.1 4.9 5.0 5.1 5.1 5.1 5.3 5.4 5.4 5.2 5.5 5.5 5.6 5.3 5.4 5.2 5.2
4.9 5.0 5.2 5.4 5.4 5.3 5.5 5.5 5.8 5.6 5.4 5.5 5.4 5.3 5.3 5.6 5.4 5.5 5.6 5.4 5.2 5.3 5.5 5.4 5.2 5.2 5.2 5.1 5.2 5.3 5.5 5.3 5.4 5.0 5.6 5.2 5.4 5.5 5.2 5.7 5.3 5.1 5.1
5.0 5.3 5.3 5.4 5.5 5.6 5.6 5.7 5.8 6.2 6.0 6.1 6.2 5.8 5.6 5.9 5.9 5.6 5.6 5.6 5.6 5.4 5.3 5.6 5.6 5.6 5.3 5.4 5.2 5.5 5.1 5.1 5.3 5.2 5.3 5.3 5.2 5.4 5.0 5.2 5.0 5.0 4.9
5.5 5.5 5.7 5.6 5.7 5.9 5.7 5.7 5.9 5.8 5.8 5.9 5.8 5.8 5.7 5.6 5.7 5.9 5.8 6.3 6.4 6.2 6.0 6.3 6.1 6.1 5.4 5.1 5.3 5.1 5.1 5.1 5.2 5.2 5.2 5.1 5.1 5.2 5.2 5.2 5.2 4.9 5.0
5.6 5.4 5.4 5.5 5.5 5.3 5.1 5.4 5.6 5.7 5.8 5.9 5.8 5.8 5.9 5.9 6.0 5.9 5.8 5.8 6.1 6.1 5.9 5.9 6.0 6.0 5.8 5.6 5.7 5.5 5.3 5.1 5.2 5.2 5.1 5.2 5.2 5.1 5.1 5.1 5.2 5.4 5.4
5.4 5.5 5.5 5.4 5.4 5.6 5.5 5.3 5.5 5.8 5.6 5.7 5.7 5.9 5.9 5.9 5.8 5.9 5.9 6.1 6.1 6.1 6.3 6.4 6.3 6.2 6.0 5.8 5.5 5.3 5.5 5.4 5.1 5.0 4.9 5.1 5.2 5.2 5.2 5.0 4.9 5.2 5.3
5.4 5.6 5.1 5.2 5.3 5.4 5.4 5.3 5.3 5.1 5.2 5.5 5.3 5.3 5.4 5.3 5.3 5.7 5.7 5.7 5.8 6.0 6.0 6.0 6.1 6.2 6.1 5.8 5.7 5.8 5.8 5.5 5.2 5.3 5.1 5.1 5.3 5.3 5.3 5.3 5.3 5.2 5.2
5.2 5.3 5.3 5.7 5.5 5.3 5.4 5.7 5.6 5.4 5.4 5.3 5.2 5.1 5.0 5.1 5.1 5.4 5.4 5.2 5.3 5.5 5.6 5.7 5.9 5.9 6.0 6.1 5.8 5.7 5.7 5.8 5.6 5.8 6.1 5.7 5.8 5.5 5.8 5.7 5.9 6.0 6.0
5.2 5.3 5.5 5.5 5.4 5.5 5.6 5.5 5.5 5.6 5.6 5.3 5.0 5.0 5.1 5.2 5.2 5.1 5.2 5.1 5.1 5.1 5.2 5.3 5.4 5.5 5.4 5.4 5.7 5.9 6.0 5.8 5.7 5.9 6.1 6.2 6.1 6.3 6.2 6.1 6.2 6.2 6.3
4.9 4.9 5.0 5.0 5.0 5.0 5.0 5.0 5.0 5.0 5.0 5.0 5.1 5.2 5.2 5.2 5.2 5.2 5.3 5.3 5.3 5.3 5.4 5.7 5.7 5.6 5.5 5.5 5.6 5.7 5.9 5.9 5.9 5.9 5.9 6.0 6.0 6.2 6.5 6.5 6.3 6.1 6.2
Wind_Speed
23 17 16 11 13 13 14 14 13 12 7 3 7 5 7 7 8 8 16 19 19 21 18 11 10 13 10 10 9 4 6 2 3 4 2 2 2 2 1 2 2 3 3
20 18 16 14 12 15 15 16 15 14 12 8 7 4 5 7 10 11 14 20 20 22 17 13 12 12 9 8 9 6 4 3 5 3 3 2 2 1 1 2 1 3 4
22 18 15 16 11 15 16 15 17 17 15 14 7 3 6 1 5 8 8 13 19 20 20 17 12 11 10 9 11 9 9 4 3 4 4 2 4 2 0 1 0 1 1
15 16 15 14 13 13 15 17 17 18 16 16 12 13 10 10 8 10 11 11 18 13 18 18 15 13 9 10 10 9 8 6 8 1 1 1 3 3 1 0 1 1 1
11 14 16 16 15 12 12 15 17 17 18 17 16 12 12 9 9 10 12 16 16 16 18 13 9 10 10 10 11 10 8 8 6 4 3 2 2 2 2 3 2 1 1
12 11 14 12 12 8 12 13 15 15 17 15 15 15 14 11 10 12 12 12 13 13 17 17 12 12 12 11 10 11 10 8 6 4 4 4 3 3 3 2 2 3 1
9 8 8 8 9 10 12 12 14 14 12 14 14 14 14 14 15 15 14 15 13 13 16 18 17 12 13 12 11 10 9 9 8 10 6 3 4 3 3 3 2 2 2
11 8 8 8 10 11 12 14 14 14 13 13 13 12 14 11 12 13 14 14 14 15 17 16 16 16 14 13 12 9 8 8 7 9 7 4 4 4 3 4 4 2 2
15 13 9 8 9 10 13 15 16 16 14 14 12 13 12 10 12 14 14 13 17 15 17 17 17 18 15 14 13 9 9 9 8 8 7 4 4 4 4 3 4 4 4
13 7 6 6 6 6 7 7 12 13 12 13 12 13 14 10 5 7 17 14 10 12 15 17 17 15 14 13 12 8 8 9 6 6 7 5 4 4 4 3 3 3 4
10 7 4 6 6 5 6 6 4 7 11 14 11 11 11 11 7 5 11 14 11 11 12 15 15 14 13 12 12 10 10 11 9 6 7 7 6 5 5 4 3 3 3
4 2 3 5 3 1 3 4 12 17 17 12 12 9 6 6 7 12 10 12 12 12 15 13 13 12 12 11 12 12 11 12 11 10 8 8 4 6 5 6 6 4 2
14 8 4 4 2 2 10 12 7 6 6 9 9 7 7 9 7 9 12 12 12 10 8 9 10 10 10 11 11 12 12 12 12 10 10 10 10 8 5 5 7 6 4
19 14 12 6 4 5 8 8 8 10 12 12 11 10 5 9 9 8 9 8 8 9 7 6 8 9 9 10 10 11 11 10 10 11 12 12 13 12 11 8 8 6 5
16 12 17 15 16 15 14 13 13 14 13 13 13 13 13 11 11 11 9 8 5 6 6 6 5 5 6 6 8 9 11 11 11 10 12 13 15 15 13 9 9 7 4
21 19 19 20 18 18 16 16 15 15 15 14 14 13 14 14 13 12 12 10 7 7 7 6 6 4 3 3 7 8 8 10 11 12 11 9 11 14 18 14 15 14 10
18 19 20 19 18 18 16 16 15 15 16 15 13 13 12 12 11 11 12 11 10 9 9 8 9 8 7 9 6 5 3 7 10 11 9 6 5 8 10 14 15 10 9
18 18 15 16 16 15 16 15 14 13 14 14 13 11 11 10 9 9 9 8 7 8 6 7 7 7 6 11 9 9 4 4 4 4 2 3 4 3 5 5 7 5 5
12 11 11 11 12 14 13 13 15 15 15 14 13 11 11 11 10 11 10 7 6 7 6 5 5 7 6 11 9 7 5 5 4 3 4 4 5 7 8 5 5 4 2
10 11 12 12 15 14 11 14 14 14 14 11 10 10 9 10 9 7 7 5 5 6 5 6 5 7 4 6 10 7 3 4 3 3 3 6 5 8 11 7 8 6 4
8 7 13 12 10 10 10 14 12 13 9 9 9 9 9 9 8 7 5 5 5 5 5 5 5 5 5 5 6 4 0 4 3 3 1 0 6 10 11 7 4 5 6
8 9 10 9 8 9 9 12 13 8 7 8 9 9 8 6 5 7 6 6 6 7 6 5 5 4 4 2 0 3 4 2 1 2 3 4 8 8 8 7 7 8 8
5 6 6 8 10 10 11 11 7 7 8 10 10 9 9 7 6 7 6 4 5 5 4 4 3 3 4 3 7 6 4 3 3 3 4 6 9 12 11 14 12 11 4
3 2 5 7 7 3 5 6 7 6 7 8 8 7 6 7 7 6 6 5 7 6 4 4 4 3 3 3 3 3 3 5 4 4 4 6 9 10 7 7 9 4 5
1 2 5 5 4 5 7 6 6 6 7 6 5 5 5 6 5 5 5 4 5 6 3 4 2 3 4 3 6 5 3 2 4 4 0 1 2 3 3 3 3 2 3
2 2 2 2 1 4 5 5 5 6 4 4 4 4 3 4 4 5 4 9 12 13 13 12 9 5 10 12 10 8 6 4 7 2 1 2 3 4 4 5 5 6 8
Wind_Direction
263 259 248 230 211 213 221 224 217 212 202 165 190 196 189 198 197 182 185 190 187 185 182 179 184 182 179 183 182 148 159 147 149 105 42 19 7 132 138 128 141 119 137
261 253 243 237 195 214 216 218 219 214 209 193 187 175 182 203 200 200 194 190 192 188 189 181 188 187 181 168 175 162 145 139 171 141 116 178 318 15 120 111 137 120 120
271 256 241 234 216 203 213 216 215 211 210 204 182 173 185 77 200 203 187 194 195 193 192 191 189 183 192 181 180 181 171 152 183 181 144 140 215 144 243 139 119 161 124
283 260 241 233 229 209 208 215 209 208 208 200 200 194 197 196 194 197 198 186 195 194 189 193 185 182 194 185 188 185 183 145 178 178 181 105 144 168 176 291 201 212 200
262 254 236 228 229 225 207 209 213 206 206 201 198 202 202 201 194 195 188 194 193 185 180 182 190 191 191 189 185 182 170 178 163 164 146 133 88 95 134 173 210 287 281
274 265 242 240 236 214 210 208 199 200 207 193 199 198 207 205 193 192 200 196 192 190 191 191 190 203 195 180 185 187 178 171 165 163 162 165 164 181 154 128 173 164 157
270 280 251 226 225 196 195 203 202 201 196 197 204 204 206 212 210 203 197 189 191 189 189 186 189 198 192 180 183 184 179 176 180 182 187 164 179 153 145 132 148 144 172
295 266 257 247 223 207 194 199 199 204 191 194 207 206 207 222 214 210 203 198 192 181 175 183 191 194 186 180 183 184 181 173 176 179 181 182 175 191 168 155 144 115 203
298 271 262 257 239 211 200 195 196 199 187 196 200 196 183 200 213 202 195 192 193 183 177 175 192 190 181 175 175 178 176 176 175 186 177 161 191 198 180 168 153 153 190
276 271 263 267 277 244 213 199 199 194 193 189 187 189 185 174 168 211 181 175 164 164 172 178 189 187 172 170 172 171 170 169 176 175 171 197 178 186 173 167 169 213 192
280 218 223 238 234 255 236 214 266 201 217 203 185 179 192 181 175 144 164 163 160 159 172 183 185 184 168 167 172 171 169 177 172 164 176 207 175 187 178 135 172 196 210
322 177 210 273 120 251 342 231 224 241 206 180 169 165 180 190 176 178 166 155 162 173 183 184 180 166 174 174 176 172 176 179 177 180 177 195 173 194 189 173 182 189 197
40 42 68 97 90 327 278 206 121 105 160 185 163 151 167 182 189 168 147 157 153 159 160 175 166 169 173 180 182 182 191 184 181 185 194 188 180 191 186 220 182 182 185
36 23 18 29 135 71 60 69 82 76 77 73 89 104 155 173 167 125 127 133 140 145 157 174 169 164 178 182 189 189 188 191 190 179 198 199 185 194 193 198 204 176 191
35 34 39 38 42 47 57 51 53 60 56 62 62 56 53 52 73 87 97 98 127 130 147 143 152 155 182 186 183 195 193 191 187 194 208 199 192 195 198 192 189 157 158
29 33 35 42 35 41 47 52 55 57 60 57 57 58 56 49 52 52 52 51 62 47 115 118 129 134 136 144 207 202 195 193 194 206 208 212 197 192 188 189 180 172 176
24 28 32 35 31 33 37 47 53 56 58 59 55 57 60 63 66 70 69 64 60 59 54 49 59 56 47 43 30 290 231 212 201 207 198 180 197 195 189 175 166 178 171
18 27 29 33 34 36 39 48 48 53 59 53 52 56 61 57 53 66 72 70 74 80 86 82 89 83 64 64 69 77 62 82 43 68 71 150 134 133 145 130 100 132 140
13 18 26 38 39 37 35 47 49 47 50 48 46 44 46 51 44 44 41 31 51 64 57 52 73 103 93 83 74 74 74 49 55 67 94 116 110 130 134 117 124 147 148
19 19 22 34 34 22 33 52 49 49 42 39 40 42 48 53 56 56 61 60 61 53 46 44 45 63 63 73 95 95 105 98 89 76 86 126 149 186 173 163 161 182 193
26 17 42 41 24 19 36 51 48 46 31 39 42 41 38 42 42 38 23 37 65 72 68 76 60 48 31 32 61 77 56 136 151 124 125 179 221 196 192 198 179 187 155
20 29 49 40 28 26 56 58 45 13 21 41 39 38 36 37 41 56 43 40 34 33 34 37 32 29 19 24 97 124 95 84 307 177 174 201 208 211 203 198 219 215 179
35 28 41 42 23 22 31 43 20 25 39 47 35 29 33 27 22 47 38 36 38 41 33 37 37 11 7 354 345 327 285 216 166 182 219 216 222 192 188 191 200 194 156
72 40 62 54 39 7 70 61 35 31 45 49 33 22 25 31 19 37 37 33 29 30 23 21 17 4 4 3 355 339 331 318 250 226 234 207 202 219 209 204 200 183 175
65 50 61 59 35 22 41 39 21 22 44 42 27 37 41 36 26 30 42 44 31 26 22 11 351 352 344 353 344 342 329 326 298 289 218 208 197 190 189 188 210 196 191
154 137 138 106 68 52 49 29 32 31 39 47 19 41 33 30 25 20 11 29 24 20 25 30 26 2 13 4 344 319 311 333 319 270 245 255 228 225 215 210 213 210 220